Hulianwang W. Digui 08-07

operational
NORAD ID: 65170 Int'l Des: 2025-174 Owner: ZXW Country: CN Constellation: xingwang
LEOCIRCULARPOLARONEWEB_TYPE

Über Hulianwang W. Digui 08-07

Beschreibung wird geladen...

Live-Position

3D-Globus wird geladen...

Nächste Überflüge

Höhenverlauf

Altitude vs Time

uPlot chart will show altitude changes over time

Zweizeiliger Elementsatz

1 65170U 25174G 25340.58870118 .00000064 00000-0 11586-3 0 9994
2 65170 86.4912 317.0496 0002098 91.0495 269.0880 13.24413736 15292
Epoch: 6. Dez. 2025 • Age: 15 hours

Aktueller Status

Höhe 1175.2 km
Geschwindigkeit 7.27 km/s
Subsatellitenpunkt 52.37°N, 171.7°E
Startdatum 13. Aug. 2025
Alter 0.3 years
Typ other

Technische Details

Klassifizierung Payload
Masse 800.00 kg
Trockenmasse 800.00 kg
Gesamtmasse 800.00 kg
Länge 3.00 m
Durchmesser 1.00 m
Spannweite 10.00 m
Form Box + 2 Pan
Hersteller CAST
Bus-Typ Guowang C
Phasenstatus In Orbit
Besitzer/Staat ZXW/CN

Große Konstellationen

Loading constellations...